INTELSAT 11 (IS-11)

Last updated on Tue Sep 22 2026 00:03:11 GMT+0000 (Coordinated Universal Time)

1 32253U 07044B 26264.50137741 .00000083 00000+0 00000+0 0 9997 2 32253 3.8086 77.4237 0007686 130.8946 34.5919 0.99046843 69403
UTC large
Height (km)
Speed (km/s)
/
Latitude / Longitude
Inclination (degrees)
Orbital Period (minutes)
Azimuth
Elevation
Range (km)
Doppler Factor

Next 0 passes for location: London (51.5072 / 0.1276)

No passes found over London.
INTELSAT 11 (IS-11)